Theta_e
317 317 318 319 319 311 315 318 317 318 318 318 320 318 317 324 320 317 330 332 331 325 330 331 331 321 316 313 311 311 316 314 314 330 330 333 331 328 318 312 310 317 320 324 328 322 314 311 309
316 317 317 321 315 314 313 312 319 316 319 324 324 326 326 328 332 330 331 330 326 328 330 331 327 320 317 313 311 310 310 311 313 329 331 332 327 322 313 311 312 319 327 329 328 324 316 314 316
316 316 319 312 309 314 313 313 315 316 324 319 322 325 327 328 329 330 332 328 326 330 331 329 325 319 318 318 317 315 312 310 314 328 330 327 318 314 310 310 316 326 330 328 328 327 324 319 323
315 319 316 313 315 314 314 314 315 316 317 318 323 324 329 330 328 330 330 329 328 331 331 329 328 319 318 321 322 319 317 314 311 321 324 316 311 309 308 309 311 327 327 322 327 321 321 324 325
317 319 313 314 315 314 313 315 316 315 316 319 322 323 329 329 330 330 330 330 330 331 330 331 333 326 319 319 323 322 320 318 316 314 313 313 311 309 308 307 307 314 316 324 324 325 323 325 325
317 316 313 315 315 313 315 316 316 315 316 319 322 328 330 331 330 329 330 330 330 331 331 332 333 331 325 320 319 323 323 321 319 318 317 317 315 311 309 307 306 308 309 315 325 319 320 318 318
315 311 314 314 314 316 316 317 315 314 315 318 323 324 328 331 333 329 330 330 330 330 330 331 331 331 329 326 320 321 324 323 322 320 319 318 317 314 312 309 307 306 308 318 313 316 318 319 320
319 311 315 313 313 315 313 317 316 316 316 317 322 319 325 328 333 331 330 330 330 330 329 328 329 330 329 328 326 322 323 324 323 322 322 319 317 315 313 311 309 308 308 313 309 311 312 315 316
317 312 313 314 312 315 313 314 315 315 316 317 321 318 320 326 334 334 333 331 331 330 330 329 328 329 329 329 327 326 324 324 324 324 323 321 319 318 316 314 312 311 309 309 309 309 311 313 312
313 311 313 312 311 313 313 315 315 315 315 316 317 317 319 327 332 334 335 335 334 332 333 332 330 328 329 329 328 327 326 325 325 325 324 323 321 320 319 317 316 314 313 313 311 311 311 312 313
312 313 312 314 314 314 314 314 315 314 314 316 317 317 319 325 330 332 332 334 333 334 335 335 333 331 328 328 329 328 327 326 326 325 325 324 323 322 321 320 319 318 318 317 315 314 313 313 313
314 312 312 314 314 314 314 314 313 314 316 315 316 316 317 323 324 325 326 328 332 332 332 333 333 333 332 329 328 329 328 327 327 326 326 325 325 324 323 322 321 321 321 320 319 318 317 316 315
312 311 313 314 314 313 314 313 313 313 315 315 316 316 317 319 320 322 326 329 329 330 329 330 330 330 332 332 329 329 329 328 327 327 326 326 325 325 325 323 323 323 322 321 320 320 320 320 318
311 311 312 313 312 313 312 311 313 312 314 314 315 315 316 318 318 320 323 325 328 329 329 330 331 330 330 329 330 329 329 328 328 327 327 327 327 326 325 325 324 323 322 321 320 320 320 319 319
311 310 310 311 312 311 312 309 309 312 312 313 314 314 315 317 319 319 318 319 321 323 328 330 331 332 331 331 329 328 328 329 329 328 328 328 328 327 326 326 326 325 323 321 320 320 319 319 319
309 305 308 308 311 311 308 306 307 312 312 312 313 314 314 315 316 317 318 319 320 322 323 326 330 331 332 332 332 331 328 328 327 327 327 327 329 328 328 326 325 324 324 322 321 320 320 320 319
306 306 307 309 310 311 309 308 309 312 312 312 313 313 313 314 315 315 316 317 318 319 320 321 325 327 331 333 333 332 331 330 329 329 329 329 329 330 329 327 325 324 324 324 322 321 320 320 320
308 308 308 308 310 311 311 309 308 312 311 313 313 314 314 314 315 315 315 315 316 317 319 320 321 324 328 332 333 332 332 331 331 330 330 329 330 330 330 328 327 326 325 325 325 324 322 321 319
306 308 310 310 310 311 310 309 308 312 310 311 313 313 313 313 313 313 313 314 314 314 316 317 318 319 324 328 332 333 332 331 331 331 330 330 330 331 330 329 329 327 325 325 325 326 324 323 320
309 310 311 309 310 311 308 308 307 308 309 310 310 311 311 311 311 311 313 313 313 314 314 314 315 316 317 322 324 329 329 330 330 331 330 331 330 330 331 331 331 329 328 326 325 326 326 324 321
309 309 309 310 308 306 305 305 304 306 307 308 308 308 310 311 311 312 313 313 313 312 313 314 314 314 315 318 322 326 329 329 330 329 330 330 331 331 331 331 331 330 329 329 328 328 326 326 325
310 308 308 308 308 308 305 305 306 305 304 305 308 310 311 312 313 313 313 313 314 314 315 314 314 314 314 314 318 320 322 324 322 324 326 328 330 330 331 331 331 330 329 329 328 327 327 327 326
310 308 308 308 307 308 308 306 305 303 307 305 307 311 312 313 314 314 314 314 314 314 314 314 314 314 314 313 313 315 319 322 324 325 326 327 328 329 331 331 329 329 328 327 325 327 328 327 326
306 306 305 305 304 305 306 304 304 305 307 308 308 311 312 313 313 314 314 314 314 314 314 314 314 313 314 314 314 313 314 316 320 323 325 326 327 328 329 329 327 326 326 327 327 326 326 326 327
306 305 306 307 306 305 305 305 304 306 306 308 308 310 312 312 313 313 313 313 314 314 314 314 314 314 314 314 313 313 314 316 318 320 323 325 327 328 328 328 326 325 325 324 323 323 324 325 325
306 306 306 306 305 306 306 308 306 305 305 309 310 311 312 313 313 313 313 313 314 314 314 314 314 314 314 314 314 313 312 313 313 315 316 318 320 320 321 323 323 324 324 322 321 322 321 320 320
309 307 304 305 294 305 305 306 306 306 307 308 310 311 312 312 312 312 313 313 313 313 313 313 314 314 314 314 314 314 313 313 313 312 312 312 313 313 313 313 313 314 315 315 316 318 318 319 318
308 305 308 304 303 305 305 306 305 309 309 308 308 310 311 312 312 313 313 313 313 313 313 313 313 313 313 313 313 313 313 313 313 312 312 312 312 312 312 312 312 312 312 312 313 313 314 315 315
308 308 306 307 306 307 306 306 303 308 307 307 308 310 311 311 312 312 312 312 312 312 312 312 312 313 313 313 313 313 313 313 313 312 312 312 311 311 311 311 311 311 311 311 311 312 312 312 312
307 308 307 308 307 305 307 308 306 306 307 308 309 309 310 311 312 312 311 311 311 311 311 311 311 311 311 311 312 312 312 313 313 313 312 312 311 311 311 311 311 311 310 310 310 310 310 311 311
Wind_Speed
7 4 5 3 4 5 0 3 0 3 1 1 6 4 4 3 3 3 14 15 24 24 20 13 12 10 9 9 9 8 8 8 9 12 9 8 7 6 8 10 11 12 15 15 16 16 16 16 16
5 3 3 3 4 3 4 3 4 4 5 14 10 7 3 0 4 10 21 18 25 23 17 18 16 11 9 9 9 10 10 12 13 13 9 7 6 6 7 10 12 13 16 17 15 13 14 15 14
5 5 2 4 3 4 4 4 5 3 16 2 4 3 3 1 4 20 17 26 26 20 21 18 14 11 11 10 10 10 11 12 15 14 9 6 6 5 7 9 12 13 14 16 14 14 13 15 17
5 4 5 4 3 3 3 4 5 7 4 1 4 4 3 1 10 15 23 26 26 22 20 18 14 11 10 9 9 9 10 10 11 11 7 5 5 6 7 7 10 12 11 13 13 11 14 16 15
7 2 4 3 2 2 2 2 12 3 1 2 2 3 2 9 13 14 24 25 25 22 21 17 14 11 10 9 9 9 9 9 9 7 5 5 6 6 6 5 6 8 8 14 10 12 12 14 14
2 2 4 1 2 4 2 7 7 4 2 4 1 5 5 10 14 19 24 24 22 21 19 17 15 13 11 9 9 9 9 9 9 8 7 6 5 5 5 5 5 4 6 12 10 8 7 7 9
5 4 4 4 1 2 4 10 4 5 4 4 5 4 4 13 14 20 22 22 20 19 18 17 16 15 12 9 8 9 8 7 7 7 6 5 5 5 4 4 4 4 5 10 7 6 6 6 5
3 5 3 2 3 4 6 10 3 7 5 4 7 3 3 17 17 20 21 22 20 19 18 17 16 16 14 12 10 8 8 7 7 6 5 4 4 5 4 4 4 4 4 7 5 4 4 3 2
3 4 2 5 6 3 8 4 5 3 6 6 8 5 3 20 20 22 23 23 22 21 19 18 18 17 15 14 11 10 9 9 8 6 5 4 3 3 4 4 3 3 3 3 3 3 3 2 2
4 4 8 4 4 4 10 4 10 5 4 6 7 9 6 19 23 25 27 26 26 25 23 21 20 18 17 16 14 12 11 10 9 7 5 3 2 2 3 3 2 2 2 1 1 2 1 1 1
3 5 4 3 2 6 9 3 6 6 2 10 13 11 10 20 22 24 25 26 26 25 24 23 22 20 19 18 17 16 14 12 11 10 8 7 6 5 4 3 3 3 2 1 0 1 1 2 2
4 3 6 5 3 4 7 5 4 10 6 2 8 10 12 18 21 22 23 24 24 25 24 22 21 21 21 21 21 19 17 16 14 13 12 10 8 8 7 6 6 5 3 2 2 1 1 2 3
3 3 5 4 3 4 4 2 4 10 12 8 5 10 15 16 18 19 19 21 22 24 22 22 21 21 22 23 23 22 20 18 16 16 15 14 13 11 11 9 9 7 5 5 3 1 1 3 4
5 5 4 3 1 2 1 1 0 3 3 13 11 8 16 17 17 18 21 23 23 23 24 23 23 21 20 20 23 24 23 21 20 20 19 17 16 15 13 11 12 10 8 8 8 7 5 5 7
8 4 2 0 1 1 1 4 7 9 7 4 14 11 14 17 20 22 19 20 23 23 24 26 26 25 24 22 20 22 24 24 23 23 22 21 19 18 17 15 12 13 12 11 10 9 9 10 12
5 5 3 0 4 0 3 8 2 3 3 6 9 11 17 18 20 22 22 23 23 25 27 27 28 29 29 28 25 23 22 24 23 21 21 21 21 21 21 20 18 17 17 17 18 16 14 15 16
6 3 4 2 4 2 2 5 3 4 1 6 5 8 12 15 19 19 20 22 25 25 26 28 31 31 32 32 30 28 26 26 25 25 23 23 23 24 24 23 23 23 22 23 24 23 21 21 20
5 3 3 2 2 2 1 8 7 10 12 16 14 12 14 17 19 16 19 21 24 27 28 28 30 32 33 33 35 33 32 31 31 31 30 27 27 27 28 27 26 26 27 27 27 29 29 28 26
7 4 3 1 1 3 5 6 11 21 16 19 21 19 20 22 22 21 23 23 24 24 28 30 30 30 34 36 37 39 39 36 35 35 35 34 32 31 31 31 31 30 30 30 30 33 34 34 33
5 5 3 1 3 2 4 9 9 14 14 16 20 18 12 12 14 11 9 18 23 22 22 25 28 31 32 35 36 39 39 39 37 37 36 37 36 35 35 35 34 34 35 33 33 36 37 37 37
2 5 3 3 2 4 5 7 6 4 5 12 9 9 8 9 7 5 3 1 5 15 19 21 22 28 32 35 37 40 42 43 42 41 40 40 40 39 38 38 37 37 38 40 38 38 40 40 39
4 6 5 5 4 2 3 4 6 5 8 7 16 15 15 16 16 14 13 13 12 9 3 11 17 20 23 30 37 40 41 43 39 39 39 41 41 41 41 41 41 40 39 39 39 40 42 45 44
4 4 5 3 5 3 4 2 7 5 4 7 13 17 20 21 22 21 20 18 17 14 12 10 5 5 11 19 25 32 38 40 41 41 41 39 39 39 40 41 40 40 39 40 41 42 44 46 46
9 7 7 5 3 1 2 4 5 1 3 3 7 18 22 29 32 33 31 29 29 27 24 21 16 11 7 6 9 16 22 28 34 37 39 39 39 38 36 35 36 39 40 42 44 45 46 45 45
4 6 2 3 2 4 1 2 7 3 2 2 6 15 20 24 29 29 27 26 24 25 25 25 25 23 19 13 9 8 12 17 22 27 31 33 35 36 35 34 34 38 39 39 40 42 44 45 47
6 6 5 7 4 2 3 5 4 2 4 9 14 21 23 23 22 22 22 21 21 20 19 19 19 19 19 18 17 13 11 14 17 21 24 27 30 30 30 31 31 33 35 37 39 43 43 44 46
5 4 4 7 3 3 3 4 2 2 5 11 14 18 19 19 18 18 17 18 17 18 18 18 17 16 16 15 15 14 13 11 12 14 18 21 23 24 26 27 28 30 31 33 36 40 44 46 47
4 8 4 3 4 3 3 5 6 4 5 2 8 12 13 14 16 15 13 13 14 14 14 14 15 16 15 15 15 16 16 15 14 12 11 14 16 18 21 23 25 27 29 31 34 37 39 43 46
3 3 5 5 4 5 3 6 7 11 7 7 7 9 10 10 11 12 13 13 14 13 12 12 12 13 13 15 16 17 17 18 19 19 20 21 22 22 23 24 25 27 28 29 32 36 39 42 44
1 6 6 5 5 1 3 4 7 10 11 9 7 6 8 9 8 9 10 12 14 15 16 17 16 17 19 19 19 20 20 21 22 24 25 26 27 27 28 29 31 32 33 33 34 36 38 41 43
Wind_Direction
277 282 316 335 54 68 258 249 214 135 233 136 122 143 180 93 159 196 143 153 158 157 154 154 137 126 116 120 121 122 121 103 104 113 119 124 92 71 72 88 92 93 92 94 98 88 89 92 99
237 259 264 103 87 76 263 249 209 187 155 120 105 98 43 76 119 145 145 151 156 157 158 151 147 144 135 131 127 131 132 136 138 123 135 132 110 82 80 99 102 99 98 100 106 101 88 94 97
207 229 212 91 104 171 210 198 194 130 147 107 112 103 114 135 155 154 149 152 158 160 156 149 147 149 142 140 132 135 134 139 141 136 155 139 113 101 94 107 112 107 102 102 107 96 90 92 96
192 184 68 89 211 242 206 166 154 125 199 232 140 68 98 138 162 161 153 157 159 160 158 158 150 147 142 139 138 137 129 126 132 140 147 128 98 91 93 102 114 119 109 103 111 95 95 95 103
196 133 66 84 276 292 259 179 145 123 175 123 140 161 80 131 158 162 159 159 163 166 164 166 164 158 152 144 147 142 131 124 121 123 113 77 84 85 87 94 119 124 114 102 109 109 107 114 121
128 90 66 189 273 321 80 157 150 124 170 146 130 141 145 161 164 165 166 163 165 169 173 176 174 173 167 160 158 156 143 130 119 108 99 87 89 96 104 107 120 134 102 122 138 128 126 112 112
127 82 167 165 199 348 160 157 157 162 165 196 156 134 177 169 162 172 172 174 174 181 182 182 180 182 180 176 170 164 150 139 125 116 109 99 109 110 115 122 133 140 122 133 144 143 130 124 116
133 91 103 156 183 233 174 164 204 175 187 176 168 214 199 176 167 173 177 184 187 188 192 193 190 191 191 193 187 168 171 165 156 148 131 119 117 113 118 128 140 138 149 140 124 139 124 133 157
131 68 154 187 165 206 158 163 158 181 154 174 197 236 232 178 173 178 183 188 195 198 200 202 202 201 201 205 200 188 187 188 180 175 166 150 132 120 118 122 139 129 169 135 140 143 152 169 160
98 106 202 188 204 194 170 172 167 170 163 212 226 224 213 184 185 185 190 194 198 201 203 208 210 210 210 213 214 209 205 205 202 200 198 195 180 177 169 158 161 162 205 121 129 112 147 189 191
129 163 184 187 221 172 158 155 169 163 212 221 223 222 203 186 195 198 201 204 203 203 206 210 213 217 220 222 223 224 220 218 219 220 221 224 222 219 213 213 215 215 230 216 172 124 193 242 264
104 133 158 145 157 149 151 142 203 212 208 239 258 233 222 201 205 207 208 210 213 212 213 214 215 220 224 228 230 232 229 226 226 228 229 237 242 236 231 230 227 231 224 202 188 209 259 294 290
110 157 136 135 131 113 140 150 251 255 246 250 266 218 219 221 220 222 222 220 220 221 221 220 223 227 229 232 234 236 238 238 239 239 241 243 243 242 237 238 231 235 226 207 195 174 334 318 294
147 116 118 127 129 91 173 234 313 257 274 233 232 233 219 225 230 225 226 227 228 230 228 228 230 232 235 239 239 242 244 244 245 246 246 245 245 244 242 249 241 240 238 225 223 226 241 281 277
110 96 53 215 209 75 215 291 229 247 277 244 230 233 228 229 231 237 243 241 239 241 239 235 236 238 240 243 246 249 252 250 247 249 249 249 249 248 245 245 256 253 254 240 254 266 269 270 273
75 49 125 213 151 147 128 267 290 260 226 242 246 244 245 242 244 245 242 243 244 244 244 243 242 242 244 246 247 251 256 256 254 249 252 250 251 251 249 249 250 253 253 252 249 254 265 272 270
29 175 220 339 188 111 146 274 290 171 309 302 276 252 251 252 249 248 247 247 247 249 248 247 246 246 247 248 249 251 258 259 262 262 256 254 255 253 255 250 252 252 255 255 251 256 259 255 261
168 173 234 207 192 102 111 268 290 273 284 290 286 268 266 260 258 261 259 255 253 250 249 250 250 250 250 251 250 251 252 257 258 261 263 260 256 256 254 256 256 253 254 257 258 256 258 261 262
129 125 159 196 346 153 226 263 277 288 283 279 278 282 282 278 281 275 260 250 249 250 252 251 252 250 247 247 247 247 249 252 255 258 262 265 264 261 259 261 259 256 258 261 262 258 258 259 257
125 132 186 91 55 125 7 288 270 277 274 286 298 300 313 310 300 295 275 243 243 247 248 250 250 252 252 250 252 251 254 256 259 261 263 265 267 266 264 262 262 263 262 260 263 261 264 264 258
121 151 181 144 69 66 335 311 329 298 337 347 342 317 359 354 18 55 64 95 228 236 243 247 250 249 252 253 252 253 253 256 258 258 260 262 264 266 266 265 265 265 264 262 264 264 263 262 261
172 190 134 127 87 210 15 284 304 330 335 33 36 57 60 61 65 73 70 66 58 48 299 258 254 252 253 252 253 255 257 258 264 266 268 267 267 268 267 268 267 266 265 267 269 268 269 262 261
179 123 116 96 94 78 339 82 272 8 38 2 16 54 62 66 71 70 68 64 58 53 48 45 28 294 267 259 257 257 259 263 266 268 270 271 272 272 270 271 273 273 273 272 270 270 268 266 261
155 79 50 58 92 30 260 149 283 110 73 14 30 55 67 78 80 79 77 74 69 65 60 54 48 42 25 340 288 272 266 266 268 270 272 275 276 276 274 271 272 273 273 271 271 270 270 272 268
86 90 19 9 19 212 2 90 237 272 91 117 58 68 78 73 71 68 64 63 62 60 58 56 52 48 42 33 10 324 292 275 273 273 274 275 277 277 278 277 273 270 271 271 271 272 273 273 272
174 162 156 191 186 205 76 223 257 350 97 94 91 83 80 72 66 60 55 51 51 45 43 41 39 39 36 32 25 8 336 308 293 286 282 279 278 279 278 277 273 271 271 270 268 268 269 269 270
187 182 161 105 28 62 216 275 21 6 55 77 81 70 67 67 62 59 53 41 33 26 20 14 17 17 14 16 14 11 1 345 322 301 290 288 287 287 283 278 275 271 268 266 265 263 265 267 269
161 158 81 3 131 216 273 283 191 183 137 96 61 63 62 59 64 59 44 33 24 13 13 11 12 8 6 2 355 350 347 343 334 325 315 306 304 298 292 286 282 277 273 270 268 266 265 265 267
130 168 58 116 147 162 157 248 185 161 163 114 76 63 63 57 53 42 35 30 31 29 24 22 15 8 2 358 353 344 337 332 329 324 315 307 303 301 299 297 292 287 282 277 273 271 271 269 269
179 181 153 145 213 262 142 262 152 152 137 122 109 94 91 85 61 45 39 39 33 31 29 27 25 17 15 9 2 353 342 334 327 322 318 312 307 301 298 296 295 294 293 291 287 283 278 274 273